World > North America > United States > Texas

North Houston, Texas Regional Weather

Lat: 29.93N, Lon: 95.52W
Wx Zone: TXZ213Web Search

Helpful Tip: Abbreviated, 7 Day, 14 Day Forecasts. There is a weather forecast for every taste.

Feedback


°F Click to change North Houston hourly weather to Imperial units.Click to change North Houston hourly weather to Metric units. °C
North Houston Weather Map
UTC Time: 4/14/2021, 10:13
Your Time:

North Houston, TX Regional Weather

Expires:202104141100;;532894
ASUS44 KSJT 141010
RWRSJT
WEST CENTRAL TEXAS REGIONAL WEATHER ROUNDUP
NATIONAL WEATHER SERVICE SAN ANGELO TX
500 AM CDT WED APR 14 2021

NOTE: "FAIR" INDICATES FEW OR NO CLOUDS BELOW 12,000 FEET WITH NO
SIGNIFICANT WEATHER AND/OR OBSTRUCTIONS TO VISIBILITY.


TXZ163-177-195>197-199-213-226-237-141100-
SOUTHEAST TEXAS
  
CITY           SKY/WX    TMP DP  RH WIND       PRES   REMARKS
COLLEGE STN    CLOUDY    69  65  86 SE7       29.92S                  
CALDWELL       CLOUDY    69  66  92 S7        29.94R                  
CROCKETT       NOT AVBL                                               
BRENHAM        CLOUDY    70  68  93 CALM      29.94S                  
HUNTSVILLE     CLOUDY    71  65  81 CALM      29.95R                  
CONROE         CLOUDY    69  64  84 SE6       29.93S                  
HOUSTON BUSH   CLOUDY    70  67  90 CALM      29.92F FOG              
HOUSTON HOBBY  DRIZZLE   73  69  87 S9        29.92R FOG              
PERLAND        LGT RAIN  73  70  90 S9        29.93R                  
WHARTON        CLOUDY    70  68  93 SE3       29.93R FOG              
$$


SKY/WX - Weather  TMP - Temperature  DP - Dew Point  RH - Relative Humidity
WIND - Wind Direction/Speed PRES - Barometric Pressure VSB - Visibility
WCI - Wind Chill Index E13G22 Wind - East Wind 13 mph/Gusts of 22 mph